This is the latest recevied weather packets stored in our database for station/object KJ4EWA. If no packets are shown the sender has not sent any weather packets the latest 10 day(s).
| Time | Temp. | Humidity | Pressure | Rain* | Wind** | Luminosity | Snow |
|---|---|---|---|---|---|---|---|
| 1777134019 | 19.44° C | 99% | 1013.3 hPa | 0 mm | - | 79 W/m² | - |
| 1777133715 | 19.44° C | 99% | 1013.5 hPa | 0.51 mm | - | 83 W/m² | - |
| 1777133414 | 19.44° C | 99% | 1013.5 hPa | 0.51 mm | - | 78 W/m² | - |
| 1777133109 | 19.44° C | 99% | 1014 hPa | 1.27 mm | - | 82 W/m² | - |
| 1777132805 | 18.89° C | 99% | 1014 hPa | 1.27 mm | - | 76 W/m² | - |
| 1777132502 | 18.89° C | 99% | 1014.1 hPa | 1.27 mm | - | 69 W/m² | - |
| 1777132198 | 18.89° C | 99% | 1014.3 hPa | 1.27 mm | - | 62 W/m² | - |
| 1777131895 | 18.89° C | 99% | 1014.2 hPa | 1.27 mm | - | 61 W/m² | - |
| 1777131593 | 18.89° C | 99% | 1014.6 hPa | 1.27 mm | - | 59 W/m² | - |
| 1777131292 | 18.89° C | 99% | 1014.4 hPa | 1.27 mm | - | 57 W/m² | - |
| 1777130991 | 18.89° C | 99% | 1014.5 hPa | 1.78 mm | - | 55 W/m² | - |
| 1777130689 | 18.89° C | 99% | 1014.7 hPa | 2.29 mm | - | 54 W/m² | - |
| 1777130385 | 18.89° C | 99% | 1014.6 hPa | 3.05 mm | - | 57 W/m² | - |
| 1777130081 | 18.89° C | 99% | 1014.8 hPa | 3.56 mm | - | 59 W/m² | - |
| 1777129777 | 18.89° C | 99% | 1015.1 hPa | 2.29 mm | - | 55 W/m² | - |
| 1777129472 | 18.89° C | 99% | 1015.1 hPa | 3.05 mm | - | 48 W/m² | - |
| 1777129171 | 18.89° C | 99% | 1015.5 hPa | 2.29 mm | - | 44 W/m² | - |
| 1777128867 | 18.89° C | 99% | 1015.5 hPa | 1.78 mm | - | 40 W/m² | - |
| 1777128564 | 18.89° C | 99% | 1015.4 hPa | 0.51 mm | - | 33 W/m² | - |
| 1777128260 | 19.44° C | 99% | 1015.4 hPa | 0 mm | - | 31 W/m² | - |
| 1777127958 | 19.44° C | 99% | 1015.3 hPa | 0 mm | - | 29 W/m² | - |
| 1777127656 | 20° C | 99% | 1015.5 hPa | 0 mm | - | 32 W/m² | - |
| 1777127352 | 20° C | 99% | 1015.7 hPa | 0 mm | - | 31 W/m² | - |
| 1777127049 | 20° C | 99% | 1015.6 hPa | 0 mm | - | 31 W/m² | - |
| 1777126744 | 20.56° C | 99% | 1015.3 hPa | 0 mm | - | 34 W/m² | - |
* Rain latest hour (hover to see other rain measurements)
** Current wind speed in m/s (hover to see current wind gust speed)